This demonstration page uses our WeatherBlox Daily Observations layout. Learn more.

Left ArrowRight Arrow

44.89941, -97.11507

Hourly Observations for October 19, 2021

Temp ( °F °C ) Dew Point ( °F °C ) Humidity (%) Winds ( mph kmh ) Pressure ( in mb ) Visibility ( mi km ) Precip ( " mm )
12:53 am 00:53 Clear 51 10.6 40 4.4 66 66 SSE 6 9 29.81 1009 10 16 N/A
1:53 am 01:53 Clear 52 11.1 39 3.9 61 61 SSE 12 19 29.80 1009 10 16 N/A
2:53 am 02:53 Clear 50 10 39 3.9 66 66 SSE 10 17 29.79 1009 10 16 N/A
3:53 am 03:53 Clear 48 8.9 39 3.9 71 71 SSE 7 11 29.79 1009 10 16 N/A
4:53 am 04:53 Clear 48 8.9 40 4.4 74 74 SSE 9 15 29.79 1009 10 16 N/A
5:53 am 05:53 Clear 47 8.3 40 4.4 77 77 SSE 9 15 29.81 1009 10 16 N/A
6:53 am 06:53 Clear 46 7.8 40 4.4 79 79 SSE 10 17 29.82 1010 10 16 N/A
7:53 am 07:53 Sunny 46 7.8 40 4.4 79 79 SSE 5 7 29.82 1010 10 16 N/A
8:53 am 08:53 Sunny 48 8.9 42 5.6 80 80 SSE 8 13 29.84 1011 10 16 N/A
9:53 am 09:53 Sunny 52 11.1 43 6.1 72 72 S 7 11 29.85 1011 10 16 N/A
10:53 am 10:53 Sunny 55 12.8 44 6.7 67 67 SSW 5 7 29.88 1012 10 16 N/A
11:53 am 11:53 Sunny 59 15 45 7.2 60 60 N N/A 29.87 1012 10 16 N/A
12:53 pm 12:53 Sunny 62 16.7 46 7.8 56 56 NE 9 15 29.87 1011 10 16 N/A
1:53 pm 13:53 Sunny 60 15.6 45 7.2 58 58 NNE 13 20 29.88 1012 10 16 N/A
2:53 pm 14:53 Sunny 60 15.6 47 8.3 62 62 NNE 15 24 29.89 1012 10 16 N/A
3:53 pm 15:53 Sunny 57 13.9 47 8.3 69 69 NNE 14 22 29.91 1013 10 16 N/A
4:53 pm 16:53 Partly Cloudy 52 11.1 46 7.8 80 80 NNE 18 30 29.93 1014 10 16 N/A
5:01 pm 17:01 Mostly Cloudy 51 10.6 46 7.8 83 83 NNE 18 30 29.93 1013 10 16 N/A
5:53 pm 17:53 Cloudy 49 9.4 46 7.8 90 90 N 15 24 29.95 1014 10 16 N/A
6:08 pm 18:08 Cloudy 49 9.4 45 7.2 86 86 N 17 28 29.94 1014 10 16 N/A
6:53 pm 18:53 Cloudy 48 8.9 45 7.2 89 89 NNE 14 22 29.97 1015 10 16 N/A
7:53 pm 19:53 Cloudy 47 8.3 45 7.2 93 93 NNE 16 26 29.98 1015 10 16 N/A
8:53 pm 20:53 Cloudy 46 7.8 44 6.7 93 93 N 20 31 29.99 1016 10 16 N/A
9:53 pm 21:53 Cloudy 45 7.2 44 6.7 97 97 NNE 14 22 30.02 1017 10 16 N/A
10:53 pm 22:53 Cloudy 46 7.8 45 7.2 96 96 N 18 30 30.01 1016 10 16 N/A
11:53 pm 23:53 Cloudy 46 7.8 45 7.2 96 96 NNE 15 24 30.00 1016 9 14 N/A

Powered by AerisWeather